TITAN 3C TRANSTAGE DEB, 38700

Orbit data source: Space-Track

TITAN 3C TRANSTAGE DEB, 38700 is space debris in GEO originally from a launch on Thu, 26 Sep 1968 UTC launched from the Air Force Eastern Test Range (AFETR). Debris objects in space refer to the collection of defunct objects orbiting the Earth. Examples of debris include non-operational satellites, rocket bodies, and fragments generated from explosions, collisions, or faulty payload assembly.

Loading next visibility...
Identifier
38700, 1968-081AA
Orbit
GEO
Country
Flag of USUS
Related business
Manufacturer
Unknown
Mission
Spacecraft
Bus & Motor
Unknown
Mass
Unknown
Launch date (UTC)
1968-09-26 (57 years ago)
Launch vehicle
Unknown
Launch site
Air Force Eastern Test Range (AFETR)
Object type
Payload
Rocket body
Debris
Shape & HBR
Unknown
Radar Cross Section
Small (<0.1 m²)

Expand to show TLE details & history
Last TLE update: 1 day ago

TLE from 1 day ago
0 TITAN 3C TRANSTAGE DEB
1 38700U 68081AA  25258.42934451 -.00000294  00000-0  00000-0 0  9991
2 38700   1.6311  58.8530 0123994 209.2147 150.7380  1.02731506 61774
Epoch: 2025-09-15T10:18Z
TLE epoch observation values (Epoch: 2025-09-15T10:18:15.365Z)
Latitude
0.00001°
Longitude
-89.7122°
Altitude
35,558.554 km
Speed
3.066 km/s
True Right ascension
03h 57m 56s
True Declination
0° 00' 00"
Sunlit
Object was in daylight at epoch
Visualization orbit readout
Latitude
Unknown
Longitude
Unknown
Altitude
Unknown
Speed
Unknown
Apparent Right ascension
Unknown
Apparent Declination
Unknown
Sunlit
N/A
Visualization observer readout
Local Sidereal Time
12:24:01
Azimuth
Unknown
Elevation
Unknown
Doppler factor
Unknown
Orbital elements
Apogee altitude
35,626.379 km
Perigee altitude
34,597.475 km
Semi-major axis
41,490.064 km
Eccentricity
0.0124
Inclination
1.6311°
RAAN
58.853°
Arg. of periapsis
209.2147°
True anomaly
151.42324°
Mean anomaly
150.738°
Eccentric anomaly
151.08154°
Mean motion
0.25682 °/min
Orbital period
1,401.77 mins
BSTAR
0
Loading maneuver chart data...
Computing Atmospheric mass density...

Documentation

Showing up to 5 results
|